When you browse on this site, cookies collect data to enhance your experience and personalize the content and advertising you see.
Visit our Privacy Policy to learn more. By continuing to use the site, you agree to this use of cookies and data.
  • In Hungary
  • List of Countries
  • For 7 days
  • Water Temperature
  • Satellite Maps
  • Weather Map
  • News
  • Weather Widgets
  • user-avatar
    Login

    Hourly Weather Pirai do Sul

    Today, 18 January, Friday

    Time Temperature Precipitation Wind Pressure Humidity
    00:00 +22°C° 1.8 mm 1 mps 677 mmHg 97%
    01:00 +22°C° 0.5 mm 1 mps 677 mmHg 97%
    02:00 +22°C° 0.5 mm 1 mps 677 mmHg 97%
    03:00 +22°C° 0.5 mm 1 mps 677 mmHg 97%
    04:00 +21°C° 0.1 mm 1 mps 676 mmHg 97%
    05:00 +21°C° 0.1 mm 1 mps 676 mmHg 96%
    06:00 +21°C° 0.1 mm 1 mps 676 mmHg 96%
    07:00 +23°C° 0 mm 1 mps 677 mmHg 89%
    08:00 +24°C° 0 mm 1 mps 677 mmHg 81%
    09:00 +26°C° 0 mm 2 mps 678 mmHg 74%
    10:00 +27°C° 0.9 mm 2 mps 678 mmHg 75%
    11:00 +27°C° 0.9 mm 2 mps 677 mmHg 76%
    12:00 +28°C° 0.9 mm 2 mps 677 mmHg 77%
    13:00 +28°C° 1.5 mm 2 mps 677 mmHg 78%
    14:00 +28°C° 1.5 mm 1 mps 676 mmHg 79%
    15:00 +28°C° 1.5 mm 1 mps 676 mmHg 81%
    16:00 +27°C° 2 mm 1 mps 676 mmHg 85%
    17:00 +25°C° 2 mm 1 mps 675 mmHg 89%
    18:00 +24°C° 2 mm 1 mps 675 mmHg 93%
    19:00 +23°C° 2.4 mm 1 mps 675 mmHg 94%
    20:00 +22°C° 2.4 mm 1 mps 675 mmHg 95%
    21:00 +22°C° 2.4 mm 1 mps 676 mmHg 97%
    22:00 +22°C° 0.3 mm 1 mps 675 mmHg 97%
    23:00 +21°C° 0.3 mm 1 mps 675 mmHg 96%

    Tomorrow, 19 January, Saturday

    Time Temperature Precipitation Wind Pressure Humidity
    00:00 +21°C° 0.3 mm 1 mps 675 mmHg 96%
    01:00 +21°C° 0 mm 1 mps 675 mmHg 96%
    02:00 +21°C° 0 mm 1 mps 674 mmHg 96%
    03:00 +21°C° 0 mm 1 mps 674 mmHg 96%
    04:00 +21°C° 0 mm 1 mps 674 mmHg 95%
    05:00 +21°C° 0 mm 1 mps 674 mmHg 95%
    06:00 +20°C° 0 mm 1 mps 674 mmHg 95%
    07:00 +22°C° 0 mm 1 mps 675 mmHg 88%
    08:00 +24°C° 0 mm 2 mps 676 mmHg 81%
    09:00 +26°C° 0 mm 2 mps 677 mmHg 74%
    10:00 +27°C° 0.3 mm 2 mps 676 mmHg 69%
    11:00 +28°C° 0.3 mm 2 mps 676 mmHg 65%
    12:00 +29°C° 0.3 mm 3 mps 676 mmHg 61%
    13:00 +29°C° 1.1 mm 2 mps 676 mmHg 65%
    14:00 +29°C° 1.1 mm 2 mps 675 mmHg 70%
    15:00 +29°C° 1.1 mm 2 mps 675 mmHg 75%
    16:00 +28°C° 1.1 mm 1 mps 675 mmHg 80%
    17:00 +27°C° 1.1 mm 1 mps 674 mmHg 84%
    18:00 +24°C° 1.1 mm 0 mps 674 mmHg 89%
    19:00 +23°C° 0.6 mm 0 mps 675 mmHg 90%
    20:00 +21°C° 0.6 mm 0 mps 675 mmHg 92%
    21:00 +20°C° 0.6 mm 0 mps 675 mmHg 93%
    22:00 +20°C° 0.1 mm 0 mps 675 mmHg 94%
    23:00 +20°C° 0.1 mm 0 mps 676 mmHg 94%

    Day after tomorrow, 20 January, Sunday

    Time Temperature Precipitation Wind Pressure Humidity
    00:00 +20°C° 0.1 mm 0 mps 676 mmHg 95%
    01:00 +21°C° 0 mm 1 mps 675 mmHg 96%
    02:00 +21°C° 0 mm 1 mps 675 mmHg 97%
    03:00 +20°C° 0 mm 2 mps 675 mmHg 97%
    04:00 +20°C° 0 mm 2 mps 675 mmHg 97%
    05:00 +20°C° 0 mm 2 mps 675 mmHg 97%
    06:00 +20°C° 0 mm 2 mps 675 mmHg 97%
    07:00 +21°C° 0 mm 2 mps 676 mmHg 94%
    08:00 +23°C° 0 mm 2 mps 676 mmHg 91%
    09:00 +24°C° 0 mm 2 mps 677 mmHg 88%
    10:00 +25°C° 0 mm 2 mps 677 mmHg 80%
    11:00 +27°C° 0 mm 2 mps 677 mmHg 72%
    12:00 +29°C° 0 mm 2 mps 678 mmHg 64%
    13:00 +28°C° 0.7 mm 3 mps 677 mmHg 70%
    14:00 +28°C° 0.7 mm 3 mps 676 mmHg 75%
    15:00 +28°C° 0.7 mm 3 mps 676 mmHg 81%
    16:00 +27°C° 0.6 mm 2 mps 676 mmHg 83%
    17:00 +26°C° 0.6 mm 2 mps 676 mmHg 85%
    18:00 +26°C° 0.6 mm 1 mps 675 mmHg 87%
    19:00 +25°C° 1.5 mm 1 mps 676 mmHg 90%
    20:00 +23°C° 1.5 mm 1 mps 676 mmHg 94%
    21:00 +22°C° 1.5 mm 1 mps 676 mmHg 97%
    22:00 +22°C° 1 mm 1 mps 676 mmHg 97%
    23:00 +22°C° 1 mm 1 mps 676 mmHg 97%

    21 January, Monday

    Time Temperature Precipitation Wind Pressure Humidity
    00:00 +21°C° 1 mm 1 mps 676 mmHg 97%
    01:00 +21°C° 0 mm 1 mps 676 mmHg 97%
    02:00 +21°C° 0 mm 1 mps 675 mmHg 98%
    03:00 +21°C° 0 mm 1 mps 675 mmHg 98%
    04:00 +20°C° 0 mm 1 mps 675 mmHg 98%
    05:00 +20°C° 0 mm 1 mps 675 mmHg 98%
    06:00 +20°C° 0 mm 1 mps 675 mmHg 97%
    07:00 +21°C° 0.2 mm 2 mps 676 mmHg 93%
    08:00 +24°C° 0.2 mm 2 mps 677 mmHg 89%
    09:00 +26°C° 0.2 mm 3 mps 677 mmHg 85%
    10:00 +26°C° 0.9 mm 3 mps 677 mmHg 84%
    11:00 +26°C° 0.9 mm 3 mps 677 mmHg 83%
    12:00 +27°C° 0.9 mm 3 mps 677 mmHg 82%
    13:00 +27°C° 0.9 mm 3 mps 677 mmHg 79%
    14:00 +28°C° 0.9 mm 3 mps 676 mmHg 76%
    15:00 +28°C° 0.9 mm 3 mps 676 mmHg 73%
    16:00 +27°C° 1.3 mm 3 mps 676 mmHg 78%
    17:00 +26°C° 1.3 mm 2 mps 676 mmHg 84%
    18:00 +25°C° 1.3 mm 2 mps 675 mmHg 89%
    19:00 +24°C° 0.3 mm 2 mps 676 mmHg 92%
    20:00 +23°C° 0.3 mm 1 mps 676 mmHg 94%
    21:00 +22°C° 0.3 mm 1 mps 676 mmHg 96%
    22:00 +22°C° 0 mm 1 mps 676 mmHg 97%
    23:00 +22°C° 0 mm 1 mps 676 mmHg 97%

    22 January, Tuesday

    Time Temperature Precipitation Wind Pressure Humidity
    00:00 +21°C° 0 mm 1 mps 676 mmHg 97%
    01:00 +21°C° 0 mm 1 mps 676 mmHg 97%
    02:00 +21°C° 0 mm 1 mps 675 mmHg 98%
    03:00 +21°C° 0 mm 1 mps 675 mmHg 98%
    04:00 +21°C° 0 mm 1 mps 675 mmHg 98%
    05:00 +21°C° 0 mm 1 mps 675 mmHg 98%
    06:00 +21°C° 0 mm 1 mps 676 mmHg 98%
    07:00 +23°C° 0 mm 2 mps 676 mmHg 91%
    08:00 +25°C° 0 mm 2 mps 677 mmHg 84%
    09:00 +27°C° 0 mm 3 mps 678 mmHg 78%
    10:00 +28°C° 0.5 mm 2 mps 678 mmHg 76%
    11:00 +28°C° 0.5 mm 2 mps 677 mmHg 74%
    12:00 +29°C° 0.5 mm 2 mps 677 mmHg 72%
    13:00 +29°C° 3.4 mm 2 mps 677 mmHg 77%
    14:00 +28°C° 3.4 mm 2 mps 676 mmHg 83%
    15:00 +27°C° 3.4 mm 2 mps 676 mmHg 88%
    16:00 +26°C° 2 mm 2 mps 676 mmHg 89%
    17:00 +26°C° 2 mm 2 mps 676 mmHg 91%
    18:00 +25°C° 2 mm 2 mps 676 mmHg 93%
    19:00 +24°C° 0.1 mm 1 mps 676 mmHg 94%
    20:00 +23°C° 0.1 mm 1 mps 676 mmHg 95%
    21:00 +20°C° 0.1 mm 0 mps 676 mmHg 96%
    22:00 +20°C° 0 mm 0 mps 676 mmHg 95%
    23:00 +20°C° 0 mm 0 mps 676 mmHg 95%

    23 January, Wednesday

    Time Temperature Precipitation Wind Pressure Humidity
    00:00 +19°C° 0 mm 0 mps 676 mmHg 95%
    01:00 +19°C° 0 mm 0 mps 676 mmHg 95%
    02:00 +19°C° 0 mm 0 mps 675 mmHg 94%
    03:00 +19°C° 0 mm 0 mps 675 mmHg 94%
    04:00 +19°C° 0 mm 0 mps 675 mmHg 94%
    05:00 +19°C° 0 mm 0 mps 676 mmHg 94%
    06:00 +19°C° 0 mm 0 mps 676 mmHg 94%
    07:00 +21°C° 0 mm 0 mps 677 mmHg 85%
    08:00 +24°C° 0 mm 0 mps 677 mmHg 77%
    09:00 +26°C° 0 mm 0 mps 678 mmHg 68%
    10:00 +27°C° 0.3 mm 0 mps 678 mmHg 67%
    11:00 +28°C° 0.3 mm 0 mps 677 mmHg 66%
    12:00 +31°C° 0.3 mm 1 mps 677 mmHg 65%
    13:00 +30°C° 3.1 mm 1 mps 676 mmHg 72%
    14:00 +29°C° 3.1 mm 1 mps 676 mmHg 78%
    15:00 +28°C° 3.1 mm 1 mps 675 mmHg 85%
    16:00 +27°C° 1.5 mm 1 mps 675 mmHg 87%
    17:00 +26°C° 1.5 mm 1 mps 675 mmHg 90%
    18:00 +25°C° 1.5 mm 1 mps 675 mmHg 93%
    19:00 +24°C° 0.1 mm 1 mps 675 mmHg 94%
    20:00 +23°C° 0.1 mm 1 mps 675 mmHg 95%
    21:00 +23°C° 0.1 mm 1 mps 675 mmHg 96%
    22:00 +22°C° 0 mm 1 mps 675 mmHg 96%
    23:00 +22°C° 0 mm 1 mps 675 mmHg 95%
    Show more